Flag for Brazil Weather past 2 weeks in Porto Velho, Rondônia, Brazil

Now
73 °F

Passing clouds.


Feels Like: 70 °F
Forecast: 71 / 87 °F
Wind: No wind

Location: Porto Velho Aeroporto

Current Time: May 30, 2015 at 4:44:35 AM

Latest Report: May 30, 2015 at 4:00 AM


Visibility: 6 mi

Pressure: 29.83 "Hg

Humidity: 94%

Dew point: 72 °F

Location of Porto VelhoLocation

Historic Weather in Porto Velho — Graph

°F

Porto Velho temperature yesterday

Maximum temperature yesterday: 86 °F (at 3:00 PM)
Minimum temperature yesterday: 73 °F (at 4:00 AM)
Average temperature yesterday: 78 °F

Past Weeks' High & Low Weather Summary

 TemperatureHumidityPressure
High91 °F (May 19, 2:00 PM)100% (May 15, 3:00 AM)30.01 "Hg (May 15, 3:00 AM)
Low72 °F (May 15, 7:00 PM)44% (May 19, 2:00 PM)29.74 "Hg (May 29, 3:00 PM)
Average79 °F82%29.89 "Hg
* Reported May 15 3:00 AM — May 30 3:00 AM, Porto Velho, Weather by CustomWeather, © 2015

Note: Actual official high and low records may vary slightly from our data, if they occured in-between our weather recording intervals... More about our weather records

Advertising

Porto Velho weather history for previous 24 hours

 ConditionsComfort  
Time TempWeatherWind HumidityBarometerVisibility
3:00 AM
Sat, May 30
73 °FPartly cloudy.No wind94%29.83 "HgN/A
2:00 AM73 °FPartly cloudy.2 mph94%29.83 "HgN/A
1:00 AM73 °FPartly cloudy.No wind94%29.83 "HgN/A
12:00 AM73 °FPartly cloudy.2 mph94%29.83 "HgN/A
11:00 PM
Fri, May 29
73 °FPartly cloudy.No wind94%29.83 "HgN/A
10:00 PM75 °FPartly cloudy.2 mph94%29.83 "HgN/A
9:00 PM73 °FPartly cloudy.2 mph94%29.83 "HgN/A
8:00 PMN/AThunderstorms.5 mphN/AN/A2 mi
7:00 PM79 °FThunderstorms. Passing clouds.10 mph89%N/A5 mi
6:00 PM81 °FScattered showers. Scattered clouds.2 mph84%N/AN/A
5:00 PM84 °FScattered showers. Scattered clouds.6 mph70%29.74 "HgN/A
4:00 PM84 °FScattered showers. Scattered clouds.9 mph70%29.74 "HgN/A
3:00 PM86 °FScattered clouds.3 mph62%29.74 "HgN/A
2:00 PM84 °FScattered clouds.No wind74%29.80 "HgN/A
1:00 PM84 °FScattered clouds.5 mph70%29.83 "HgN/A
12:00 PM82 °FPartly sunny.6 mph74%29.86 "HgN/A
11:00 AM81 °FPartly sunny.3 mph74%29.89 "HgN/A
10:00 AM79 °FBroken clouds.5 mph79%29.92 "HgN/A
9:00 AM77 °FBroken clouds.6 mph83%29.89 "HgN/A
8:00 AM75 °FBroken clouds.2 mph89%29.89 "HgN/A
7:00 AM73 °FScattered clouds.3 mph94%29.86 "HgN/A
6:00 AM73 °FPassing clouds.7 mph94%29.83 "HgN/A
5:00 AM73 °FPassing clouds.6 mph94%29.83 "HgN/A
4:00 AM73 °FPassing clouds.3 mph94%29.83 "HgN/A
Weather by CustomWeather, © 2015

See weather overviewHow to use our weather pages